Погода в Русской Березовке

Россия / Белгородская область     50°40′34″N   35°43′55″E
темп.,
°C
ветер,
м/с
пор.,
м/с
влажн.,
%
обл.,
%
осадки,
мм/ч
давл.,
гПа
погр.,
м
6 марта, сб
сб600:00−3с359198 0.0 1017244
03:00−3с358898 0.0 1018274
06:00−4ссз3587100 0.0 1017281
09:00−4ссз5787100 0.0 1019499
12:00−3ссз687767 0.0 1019813
15:00−3ссз797258 0.0 10191092
18:00−4сз587319 0.0 1020954
21:00−5сз48769 0.0 1021597
7 марта, вс
вс700:00−5зсз47830 0.0 1022426
03:00−5зюз37920 0.0 1022343
06:00−6зюз510885 0.0 1020405
09:00−4зюз8137048 0.0 1018785
12:00−1юз101563100 0.0 10141181
15:000зюз111777100 0.0 10111295
18:00−1зюз101691100 0.2 10081118
21:00−1зюз91588100 0.6 1008911
8 марта, пн
пн800:00−1зюз8149099 0.2 1007901
03:00−1з8148999 0.3 1006902
06:00−2з81493100 0.2 10061026
09:00−3зсз8117499 0.3 10081191
12:00−4сз7115474 0.1 10101235
15:00−4сз7105347 0.1 10121474
18:00−5сз57640 0.0 10131108
21:00−6зсз26730 0.0 1015530
9 марта, вт
вт900:00−6з23760 0.0 1015212
03:00−6зюз368119 0.0 1015218
06:00−6зсз369195 0.0 1015264
09:00−6сз469098 0.1 1016501
12:00−6ссз6771100 0.1 1018927
15:00−6ссз6870100 0.1 1020905
18:00−7ссз587465 0.0 1021818
21:00−8сз468049 0.0 1024632
10 марта, ср
ср1000:00−8зсз24830 0.0 1025305
03:00−8зюз24830 0.0 1025207
06:00−8зюз368540 0.0 1024240
09:00−7зюз477768 0.0 1024368
12:00−4з466185 0.0 1023561
15:00−3зюз465393 0.0 1022776
18:00−4з365992 0.0 1021461
21:00−5з356865 0.0 1021185